User: anonymous   Login
Location: Unspecified
(0.0000°N, 0.0000°E)
Time: 06:54:31
(UTC+02:00)
Language:

Delta 168 - Orbit

View from above orbital plane
View from above orbital plane
View from above satellite
View from above satellite

Ground track
Ground track

The orbit data is extracted from the following two-line orbital elements,

1 14051U 83041B   17235.60593395 +.00000871 +00000-0 +58933-4 0  9993
2 14051 025.3408 009.1493 1097136 299.3849 050.1473 13.08489298587284
Epoch (UTC): 23 August 2017 14:32:32
Eccentricity: 0.1097136
inclination: 25.3408°
perigee height: 394 km
apogee height: 2063 km
right ascension of ascending node: 9.1493°
argument of perigee: 299.3849°
revolutions per day: 13.08489298
mean anomaly at epoch: 50.1473°
orbit number at epoch: 58728

The dashed part of the orbit path shows where the satellite is in the earth's shadow,  

DLR